| time (UTC) | temp C | wind direction | speed KPH | gust KPH | rain 1hr cm | rain 24hr cm | rain mn cm | humidity % | barometer mb |
| 20260507234524 | 9 | 278 | 1.6 | 3.2 | 0.00 | 0.00 | 0.00 | 65 | |
| 20260507233524 | 9 | 266 | 1.6 | 3.2 | 0.00 | 0.00 | 0.00 | 64 | |
| 20260507232524 | 9 | 267 | 1.6 | 4.8 | 0.00 | 0.00 | 0.00 | 63 | |
| 20260507231524 | 9 | 263 | 3.2 | 4.8 | 0.00 | 0.00 | 0.00 | 63 | |
| 20260507230524 | 9 | 265 | 3.2 | 6.4 | 0.00 | 0.00 | 0.00 | 62 | |
| 20260507225544 | 9 | 272 | 3.2 | 8.0 | 0.00 | 0.00 | 0.00 | 65 | |
| 20260507224524 | 10 | 284 | 3.2 | 6.4 | 0.00 | 0.00 | 0.00 | 64 | |
| 20260507223524 | 10 | 288 | 3.2 | 8.0 | 0.00 | 0.00 | 0.00 | 63 | |
| 20260507222524 | 10 | 288 | 4.8 | 17.7 | 0.00 | 0.00 | 0.00 | 56 | |
| 20260507221524 | 11 | 270 | 4.8 | 9.7 | 0.00 | 0.00 | 0.00 | 54 | |
| 20260507220524 | 11 | 284 | 3.2 | 8.0 | 0.00 | 0.00 | 0.00 | 56 | |
| 20260507215524 | 11 | 283 | 3.2 | 8.0 | 0.00 | 0.00 | 0.00 | 58 | |
| 20260507214524 | 11 | 277 | 3.2 | 6.4 | 0.00 | 0.00 | 0.00 | 60 | |
| 20260507213524 | 10 | 278 | 4.8 | 8.0 | 0.00 | 0.00 | 0.00 | 60 | |
| 20260507212524 | 11 | 278 | 4.8 | 8.0 | 0.00 | 0.00 | 0.00 | 57 | |
| 20260507211524 | 11 | 264 | 4.8 | 9.7 | 0.00 | 0.00 | 0.00 | 55 | |
| 20260507210524 | 12 | 281 | 4.8 | 12.9 | 0.00 | 0.00 | 0.00 | 54 | |
| 20260507205524 | 12 | 268 | 4.8 | 11.3 | 0.00 | 0.00 | 0.00 | 54 | |
| 20260507204524 | 12 | 275 | 4.8 | 16.1 | 0.00 | 0.00 | 0.00 | 52 | |
| 20260507203524 | 11 | 274 | 6.4 | 11.3 | 0.00 | 0.00 | 0.00 | 51 | |
| 20260507202524 | 12 | 279 | 4.8 | 12.9 | 0.00 | 0.00 | 0.00 | 53 | |
| 20260507201524 | 11 | 282 | 4.8 | 8.0 | 0.00 | 0.00 | 0.00 | 51 | |
| 20260507200524 | 11 | 265 | 3.2 | 8.0 | 0.00 | 0.00 | 0.00 | 54 | |
| 20260507195604 | 11 | 269 | 4.8 | 12.9 | 0.00 | 0.00 | 0.00 | 55 | |
| 20260507194544 | 12 | 270 | 4.8 | 12.9 | 0.00 | 0.00 | 0.00 | 50 | |
| 20260507193524 | 13 | 290 | 4.8 | 12.9 | 0.00 | 0.00 | 0.00 | 44 | |
| 20260507192524 | 12 | 276 | 6.4 | 16.1 | 0.00 | 0.00 | 0.00 | 47 | |
| 20260507191524 | 12 | 264 | 3.2 | 8.0 | 0.00 | 0.00 | 0.00 | 50 | |
| 20260507190524 | 11 | 282 | 4.8 | 8.0 | 0.00 | 0.00 | 0.00 | 51 | |
| 20260507185544 | 12 | 270 | 4.8 | 8.0 | 0.00 | 0.00 | 0.00 | 49 | |
| 20260507184524 | 12 | 274 | 3.2 | 9.7 | 0.00 | 0.00 | 0.00 | 49 | |
| 20260507183524 | 12 | 274 | 3.2 | 9.7 | 0.00 | 0.00 | 0.00 | 48 | |
| 20260507182523 | 12 | 286 | 4.8 | 11.3 | 0.00 | 0.00 | 0.00 | 50 | |
| 20260507181524 | 12 | 275 | 4.8 | 11.3 | 0.00 | 0.00 | 0.00 | 50 | |
| 20260507180524 | 12 | 274 | 4.8 | 9.7 | 0.00 | 0.00 | 0.00 | 50 | |
| 20260507175525 | 12 | 279 | 4.8 | 9.7 | 0.00 | 0.00 | 0.00 | 49 | |
| 20260507174524 | 12 | 295 | 4.8 | 11.3 | 0.00 | 0.00 | 0.00 | 49 | |
| 20260507173524 | 12 | 273 | 4.8 | 11.3 | 0.00 | 0.00 | 0.00 | 49 | |
| 20260507172524 | 12 | 278 | 6.4 | 11.3 | 0.00 | 0.00 | 0.00 | 48 | |
| 20260507171524 | 13 | 270 | 3.2 | 8.0 | 0.00 | 0.00 | 0.00 | 48 | |
| 20260507170524 | 12 | 270 | 4.8 | 12.9 | 0.00 | 0.00 | 0.00 | 48 | |
| 20260507165524 | 13 | 283 | 6.4 | 14.5 | 0.00 | 0.00 | 0.00 | 47 | |
| 20260507164524 | 13 | 290 | 4.8 | 14.5 | 0.00 | 0.00 | 0.00 | 49 | |
| 20260507163524 | 13 | 276 | 4.8 | 11.3 | 0.00 | 0.00 | 0.00 | 50 | |
| 20260507162543 | 13 | 249 | 3.2 | 12.9 | 0.00 | 0.00 | 0.00 | 50 | |
| 20260507161524 | 14 | 234 | 4.8 | 11.3 | 0.00 | 0.03 | 0.00 | 48 | |
| 20260507160524 | 15 | 235 | 4.8 | 8.0 | 0.00 | 0.05 | 0.00 | 47 | |
| 20260507155524 | 15 | 227 | 3.2 | 11.3 | 0.00 | 0.08 | 0.00 | 47 | |
| 20260507154524 | 14 | 250 | 4.8 | 11.3 | 0.00 | 0.10 | 0.00 | 49 | |
| 20260507153524 | 14 | 238 | 3.2 | 11.3 | 0.00 | 0.10 | 0.00 | 50 | |
| 20260507152524 | 14 | 236 | 3.2 | 9.7 | 0.00 | 0.10 | 0.00 | 50 | |
| 20260507151544 | 14 | 234 | 3.2 | 9.7 | 0.00 | 0.10 | 0.00 | 51 | |
| 20260507150524 | 14 | 227 | 3.2 | 12.9 | 0.00 | 0.13 | 0.00 | 52 | |
| 20260507145544 | 13 | 242 | 3.2 | 12.9 | 0.00 | 0.13 | 0.00 | 52 | |
| 20260507144544 | 13 | 230 | 3.2 | 9.7 | 0.00 | 0.15 | 0.00 | 52 | |
| 20260507143524 | 13 | 209 | 3.2 | 11.3 | 0.00 | 0.15 | 0.00 | 52 | |
| 20260507142524 | 13 | 240 | 3.2 | 8.0 | 0.00 | 0.18 | 0.00 | 52 | |
| 20260507141524 | 12 | 232 | 3.2 | 9.7 | 0.00 | 0.28 | 0.00 | 54 | |
| 20260507140524 | 12 | 218 | 3.2 | 11.3 | 0.00 | 0.33 | 0.00 | 55 | |
| 20260507135523 | 12 | 233 | 3.2 | 8.0 | 0.00 | 0.38 | 0.00 | 57 | |
| 20260507134544 | 11 | 207 | 3.2 | 9.7 | 0.00 | 0.41 | 0.00 | 59 | |
| 20260507133524 | 10 | 247 | 1.6 | 8.0 | 0.00 | 0.43 | 0.00 | 62 | |
| 20260507132524 | 9 | 249 | 3.2 | 8.0 | 0.00 | 0.43 | 0.00 | 63 | |
| 20260507131543 | 9 | 267 | 1.6 | 6.4 | 0.00 | 0.43 | 0.00 | 65 | |
| 20260507130524 | 8 | 252 | 1.6 | 8.0 | 0.00 | 0.43 | 0.00 | 65 | |
| 20260507125524 | 8 | 258 | 3.2 | 11.3 | 0.00 | 0.48 | 0.00 | 66 | |
| 20260507124524 | 7 | 262 | 4.8 | 9.7 | 0.00 | 0.48 | 0.00 | 66 | |
| 20260507123524 | 7 | 244 | 3.2 | 6.4 | 0.00 | 0.48 | 0.00 | 69 | |
| 20260507122544 | 7 | 254 | 1.6 | 6.4 | 0.00 | 0.51 | 0.00 | 73 | |
| 20260507121524 | 7 | 248 | 3.2 | 9.7 | 0.00 | 0.51 | 0.00 | 74 | |
| 20260507120524 | 8 | 238 | 3.2 | 12.9 | 0.00 | 0.51 | 0.00 | 76 | |
| 20260507115524 | 8 | 247 | 3.2 | 9.7 | 0.00 | 0.51 | 0.00 | 79 | |
| 20260507114524 | 8 | 252 | 1.6 | 6.4 | 0.00 | 0.53 | 0.00 | 82 | |
| 20260507113523 | 8 | 241 | 3.2 | 8.0 | 0.00 | 0.56 | 0.00 | 84 | |
| 20260507112524 | 8 | 254 | 1.6 | 4.8 | 0.00 | 0.58 | 0.00 | 86 | |
| 20260507111523 | 8 | 250 | 1.6 | 6.4 | 0.00 | 0.58 | 0.00 | 86 | |
| 20260507110524 | 7 | 248 | 1.6 | 6.4 | 0.00 | 0.61 | 0.00 | 88 | |
| 20260507105524 | 7 | 246 | 1.6 | 8.0 | 0.00 | 0.61 | 0.00 | 88 | |
| 20260507104524 | 7 | 247 | 1.6 | 8.0 | 0.00 | 0.64 | 0.00 | 89 | |
| 20260507103524 | 7 | 247 | 1.6 | 8.0 | 0.00 | 0.64 | 0.00 | 89 | |
| 20260507102523 | 7 | 251 | 1.6 | 4.8 | 0.00 | 0.66 | 0.00 | 90 | |
| 20260507101524 | 7 | 251 | 1.6 | 6.4 | 0.00 | 0.66 | 0.00 | 90 | |
| 20260507100523 | 7 | 266 | 1.6 | 4.8 | 0.00 | 0.66 | 0.00 | 90 | |
| 20260507095524 | 7 | 248 | 1.6 | 4.8 | 0.00 | 0.66 | 0.00 | 90 | |
| 20260507094524 | 7 | 246 | 3.2 | 6.4 | 0.00 | 0.66 | 0.00 | 90 | |
| 20260507093523 | 7 | 245 | 1.6 | 8.0 | 0.00 | 0.66 | 0.00 | 91 | |
| 20260507092544 | 7 | 250 | 1.6 | 4.8 | 0.00 | 0.66 | 0.00 | 90 | |
| 20260507091524 | 7 | 246 | 0.0 | 3.2 | 0.00 | 0.66 | 0.00 | 90 | |
| 20260507090524 | 7 | 261 | 0.0 | 3.2 | 0.00 | 0.66 | 0.00 | 90 | |
| 20260507085523 | 7 | 255 | 1.6 | 3.2 | 0.00 | 0.66 | 0.00 | 90 | |
| 20260507084523 | 7 | 244 | 1.6 | 3.2 | 0.00 | 0.66 | 0.00 | 90 | |
| 20260507083523 | 7 | 225 | 1.6 | 3.2 | 0.00 | 0.66 | 0.00 | 90 | |
| 20260507082524 | 7 | 226 | 1.6 | 4.8 | 0.00 | 0.66 | 0.00 | 90 | |
| 20260507081604 | 7 | 237 | 1.6 | 6.4 | 0.00 | 0.66 | 0.00 | 90 | |
| 20260507080603 | 7 | 245 | 3.2 | 8.0 | 0.00 | 0.66 | 0.00 | 89 | |
| 20260507075526 | 7 | 242 | 1.6 | 8.0 | 0.00 | 0.66 | 0.00 | 89 | |
| 20260507074523 | 7 | 247 | 1.6 | 8.0 | 0.00 | 0.66 | 0.00 | 89 | |
| 20260507073523 | 7 | 241 | 1.6 | 6.4 | 0.00 | 0.66 | 0.00 | 89 | |
| 20260507072604 | 7 | 247 | 1.6 | 6.4 | 0.00 | 0.66 | 0.00 | 90 | |
| 20260507071523 | 7 | 202 | 1.6 | 9.7 | 0.00 | 0.66 | 0.00 | 90 | |
| 20260507070524 | 7 | 236 | 1.6 | 6.4 | 0.00 | 0.66 | 0.00 | 90 | |
| 20260507065523 | 7 | 231 | 1.6 | 6.4 | 0.00 | 0.66 | 0.00 | 89 | |
| 20260507064524 | 7 | 257 | 1.6 | 3.2 | 0.00 | 0.66 | 0.00 | 89 | |
| 20260507063523 | 7 | 239 | 1.6 | 4.8 | 0.00 | 0.66 | 0.00 | 88 | |
| 20260507062524 | 7 | 248 | 1.6 | 6.4 | 0.00 | 0.66 | 0.00 | 88 | |
| 20260507061524 | 7 | 243 | 1.6 | 6.4 | 0.00 | 0.66 | 0.00 | 88 | |
| 20260507060524 | 7 | 249 | 1.6 | 8.0 | 0.00 | 0.66 | 0.00 | 88 | |
| 20260507055524 | 7 | 244 | 1.6 | 6.4 | 0.00 | 0.66 | 0.00 | 87 | |
| 20260507054523 | 7 | 244 | 1.6 | 6.4 | 0.00 | 0.66 | 0.00 | 87 | |
| 20260507053524 | 7 | 241 | 1.6 | 4.8 | 0.00 | 0.66 | 0.00 | 88 | |
| 20260507052543 | 7 | 251 | 1.6 | 4.8 | 0.00 | 0.66 | 0.00 | 88 | |
| 20260507051523 | 7 | 242 | 1.6 | 4.8 | 0.00 | 0.66 | 0.00 | 87 | |
| 20260507050524 | 7 | 250 | 1.6 | 8.0 | 0.00 | 0.66 | 0.00 | 86 | |
| 20260507045523 | 7 | 258 | 0.0 | 3.2 | 0.00 | 0.66 | 0.00 | 87 | |
| 20260507044524 | 7 | 243 | 1.6 | 8.0 | 0.00 | 0.66 | 0.00 | 86 | |
| 20260507043523 | 7 | 223 | 1.6 | 8.0 | 0.00 | 0.66 | 0.00 | 86 | |
| 20260507042523 | 7 | 251 | 1.6 | 4.8 | 0.00 | 0.66 | 0.00 | 86 | |
| 20260507041523 | 7 | 243 | 1.6 | 6.4 | 0.00 | 0.66 | 0.00 | 87 | |
| 20260507040523 | 7 | 250 | 1.6 | 4.8 | 0.00 | 0.66 | 0.00 | 87 | |
| 20260507035523 | 7 | 242 | 0.0 | 1.6 | 0.00 | 0.66 | 0.66 | 87 | |
| 20260507034523 | 7 | 225 | 1.6 | 3.2 | 0.00 | 0.66 | 0.66 | 86 | |
| 20260507033523 | 7 | 250 | 1.6 | 3.2 | 0.00 | 0.66 | 0.66 | 86 | |
| 20260507032523 | 7 | 235 | 0.0 | 3.2 | 0.00 | 0.66 | 0.66 | 86 | |
| 20260507031523 | 7 | 239 | 1.6 | 6.4 | 0.00 | 0.66 | 0.66 | 86 | |
| 20260507030523 | 7 | 211 | 0.0 | 3.2 | 0.00 | 0.66 | 0.66 | 86 | |
| 20260507025523 | 7 | 248 | 0.0 | 4.8 | 0.00 | 0.66 | 0.66 | 86 | |
| 20260507024523 | 7 | 250 | 1.6 | 4.8 | 0.00 | 0.66 | 0.66 | 86 | |
| 20260507023523 | 7 | 246 | 0.0 | 3.2 | 0.00 | 0.66 | 0.66 | 86 | |
| 20260507022523 | 7 | 242 | 1.6 | 6.4 | 0.00 | 0.66 | 0.66 | 86 | |
| 20260507021523 | 7 | 248 | 1.6 | 3.2 | 0.00 | 0.66 | 0.66 | 88 | |
| 20260507020523 | 7 | 251 | 0.0 | 3.2 | 0.00 | 0.66 | 0.66 | 87 | |
| 20260507015543 | 7 | 0.0 | 0.0 | 0.00 | 0.66 | 0.66 | 88 | ||
| 20260507014523 | 7 | 248 | 0.0 | 1.6 | 0.00 | 0.66 | 0.66 | 87 | |
| 20260507013523 | 7 | 0.0 | 1.6 | 0.00 | 0.66 | 0.66 | 87 | ||
| 20260507012523 | 7 | 243 | 0.0 | 1.6 | 0.00 | 0.66 | 0.66 | 88 | |
| 20260507011523 | 8 | 241 | 0.0 | 1.6 | 0.00 | 0.66 | 0.66 | 87 | |
| 20260507010523 | 8 | 228 | 1.6 | 3.2 | 0.00 | 0.66 | 0.66 | 85 | |
| 20260507005523 | 8 | 236 | 1.6 | 3.2 | 0.00 | 0.66 | 0.66 | 85 | |
| 20260507004543 | 8 | 206 | 1.6 | 4.8 | 0.00 | 0.66 | 0.66 | 85 | |
| 20260507003523 | 8 | 244 | 0.0 | 1.6 | 0.00 | 0.66 | 0.66 | 85 | |
| 20260507002523 | 8 | 231 | 1.6 | 3.2 | 0.00 | 0.66 | 0.66 | 85 | |
| 20260507001523 | 8 | 226 | 1.6 | 3.2 | 0.00 | 0.66 | 0.66 | 85 | |
| 20260507000523 | 8 | 230 | 0.0 | 4.8 | 0.00 | 0.66 | 0.66 | 86 | |
| 20260506235523 | 8 | 202 | 1.6 | 4.8 | 0.00 | 0.66 | 0.66 | 86 |